Chehalis, WA
on Saturday, January 5, 2013

Saturday
Previous Day Next Day
Daily Summary
 ActualAverage (KOLM)Record (KOLM)
Temperature
Mean Temperature °F 39°F  
Max Temperature 41°F 45°F 53°F (1956)
Min Temperature 37°F 34°F 4°F (1979)
Degree Days
Heating Degree Days 26 26  
Month to date heating degree days 130  
Since 1 July heating degree days 2400  
Cooling Degree Days 0 0  
Month to date cooling degree days 0  
Year to date cooling degree days 0  
Moisture
Dew Point 35°F   
Average Humidity 84    
Maximum Humidity 100    
Minimum Humidity 70    
Precipitation
Precipitation 0.00 in 0.26 in 1.95 in (1954)
Month to date precipitation 1.27  
Year to date precipitation 1.27  
Wind
Wind Speed 5 mph   
Max Wind Speed 10 mph   
Max Gust Speed mph   
Visibility 7 miles   
Events Rain   

Key: T is trace of precipitation, MM is missing value
Source: NWS Daily Summary
Time(PST)TemperatureDew PointHumidity Pressure Visibility Wind DirectionWind SpeedGust SpeedPrecipitationEvents Conditions
12:15 AM 41.0°F 41.0°F 100% 30.18 in 1.2 miles SSE 4.6 mph - N/A   Overcast
12:35 AM 41.0°F 41.0°F 100% 30.18 in 5.0 miles South 3.5 mph - N/A   Overcast
12:55 AM 41.0°F 41.0°F 100% 30.18 in 3.0 miles South 4.6 mph - N/A   Overcast
1:15 AM 41.0°F 39.2°F 93% 30.18 in 3.0 miles South 5.8 mph - N/A   Overcast
1:35 AM 41.0°F 39.2°F 93% 30.18 in 3.0 miles South 5.8 mph - N/A   Overcast
1:55 AM 41.0°F 39.2°F 93% 30.18 in 5.0 miles SSW 5.8 mph - N/A   Overcast
2:15 AM 41.0°F 39.2°F 93% 30.19 in 4.0 miles SSW 3.5 mph - N/A   Overcast
2:35 AM 41.0°F 39.2°F 93% 30.18 in 4.0 miles SSE 3.5 mph - N/A   Overcast
2:55 AM 41.0°F 39.2°F 93% 30.19 in 7.0 miles South 5.8 mph - N/A   Overcast
3:15 AM 39.2°F 39.2°F 100% 30.19 in 7.0 miles SSE 3.5 mph - N/A   Overcast
3:35 AM 39.2°F 37.4°F 93% 30.19 in 8.0 miles Calm Calm - N/A   Overcast
3:55 AM 39.2°F 37.4°F 93% 30.19 in 7.0 miles SSE 4.6 mph - N/A   Overcast
4:35 AM 39.2°F 37.4°F 93% 30.19 in 10.0 miles SSW 3.5 mph - N/A   Overcast
4:55 AM 39.2°F 37.4°F 93% 30.18 in 10.0 miles Calm Calm - N/A   Overcast
5:15 AM 39.2°F 37.4°F 93% 30.18 in 9.0 miles Calm Calm - N/A   Overcast
5:35 AM 39.2°F 37.4°F 93% 30.18 in 5.0 miles South 3.5 mph - N/A   Overcast
5:55 AM 39.2°F 35.6°F 87% 30.17 in 10.0 miles East 3.5 mph - N/A   Overcast
6:15 AM 39.2°F 35.6°F 87% 30.18 in 10.0 miles SW 6.9 mph - N/A   Overcast
6:35 AM 39.2°F 35.6°F 87% 30.19 in 9.0 miles South 4.6 mph - N/A   Overcast
6:55 AM 39.2°F 35.6°F 87% 30.19 in 7.0 miles South 4.6 mph - N/A   Overcast
7:15 AM 39.2°F 35.6°F 87% 30.19 in 5.0 miles South 3.5 mph - N/A   Overcast
7:35 AM 37.4°F 33.8°F 87% 30.19 in 5.0 miles SSE 6.9 mph - N/A   Overcast
7:55 AM 37.4°F 32.0°F 81% 30.19 in 6.0 miles Calm Calm - N/A   Haze
8:15 AM 39.2°F 33.8°F 81% 30.20 in 10.0 miles Calm Calm - N/A   Overcast
8:55 AM 39.2°F 32.0°F 75% 30.20 in 8.0 miles SSW 4.6 mph - N/A   Mostly Cloudy
9:35 AM 39.2°F 32.0°F 75% 30.21 in 4.0 miles South 4.6 mph - N/A   Haze
9:55 AM 39.2°F 32.0°F 75% 30.20 in 4.0 miles SE 6.9 mph - N/A   Haze
10:15 AM 39.2°F 32.0°F 75% 30.21 in 4.0 miles South 6.9 mph - N/A   Haze
10:35 AM 39.2°F 32.0°F 75% 30.21 in 10.0 miles South 9.2 mph - N/A   Clear
10:55 AM 39.2°F 32.0°F 75% 30.21 in 10.0 miles South 8.1 mph - N/A   Clear
11:15 AM 39.2°F 32.0°F 75% 30.20 in 10.0 miles SSW 8.1 mph - N/A   Partly Cloudy
11:35 AM 39.2°F 32.0°F 75% 30.20 in 4.0 miles South 6.9 mph - N/A   Haze
11:55 AM 41.0°F 32.0°F 70% 30.20 in 4.0 miles South 6.9 mph - N/A   Haze
12:15 PM 41.0°F 32.0°F 70% 30.19 in 4.0 miles SSW 6.9 mph - N/A   Haze
12:35 PM 41.0°F 32.0°F 70% 30.17 in 4.0 miles South 4.6 mph - N/A   Haze
12:55 PM 41.0°F 33.8°F 76% 30.16 in 5.0 miles South 6.9 mph - N/A   Haze
1:15 PM 41.0°F 33.8°F 76% 30.16 in 10.0 miles South 6.9 mph - N/A   Clear
1:35 PM 41.0°F 33.8°F 76% 30.16 in 5.0 miles SSW 4.6 mph - N/A   Haze
1:55 PM 41.0°F 33.8°F 76% 30.16 in 10.0 miles South 4.6 mph - N/A   Scattered Clouds
2:15 PM 41.0°F 33.8°F 76% 30.16 in 5.0 miles SSW 4.6 mph - N/A   Haze
2:35 PM 41.0°F 33.8°F 76% 30.16 in 4.0 miles South 6.9 mph - N/A   Haze
2:55 PM 41.0°F 33.8°F 76% 30.16 in 5.0 miles South 6.9 mph - N/A   Haze
3:15 PM 41.0°F 35.6°F 81% 30.15 in 4.0 miles South 8.1 mph - N/A   Haze
3:35 PM 41.0°F 33.8°F 76% 30.15 in 4.0 miles South 5.8 mph - N/A   Haze
3:55 PM 41.0°F 33.8°F 76% 30.16 in 10.0 miles South 5.8 mph - N/A   Clear
4:15 PM 41.0°F 35.6°F 81% 30.15 in 9.0 miles SSE 5.8 mph - N/A   Mostly Cloudy
4:35 PM 41.0°F 35.6°F 81% 30.15 in 5.0 miles South 6.9 mph - N/A   Haze
4:55 PM 41.0°F 35.6°F 81% 30.15 in 7.0 miles South 8.1 mph - N/A   Overcast
5:15 PM 41.0°F 35.6°F 81% 30.15 in 7.0 miles SSE 9.2 mph - N/A   Overcast
5:55 PM 41.0°F 33.8°F 76% 30.15 in 10.0 miles SSE 10.4 mph - N/A   Overcast
6:15 PM 41.0°F 33.8°F 76% 30.15 in 10.0 miles South 6.9 mph - N/A   Overcast
6:35 PM 39.2°F 35.6°F 87% 30.16 in 8.0 miles South 5.8 mph - N/A Rain Light Rain
6:55 PM 39.2°F 35.6°F 87% 30.15 in 10.0 miles South 9.2 mph - N/A Rain Light Rain
7:15 PM 39.2°F 35.6°F 87% 30.15 in 10.0 miles South 8.1 mph - N/A   Overcast
7:35 PM 39.2°F 35.6°F 87% 30.15 in 10.0 miles South 8.1 mph - N/A   Overcast
7:55 PM 39.2°F 35.6°F 87% 30.15 in 10.0 miles South 9.2 mph - N/A   Overcast
8:15 PM 39.2°F 35.6°F 87% 30.16 in 10.0 miles South 5.8 mph - N/A   Overcast
8:35 PM 39.2°F 35.6°F 87% 30.16 in 7.0 miles SSW 4.6 mph - N/A   Overcast
8:55 PM 39.2°F 35.6°F 87% 30.16 in 6.0 miles South 6.9 mph - N/A   Overcast
9:15 PM 39.2°F 35.6°F 87% 30.15 in 10.0 miles South 5.8 mph - N/A   Overcast
9:35 PM 39.2°F 35.6°F 87% 30.17 in 10.0 miles South 8.1 mph - N/A   Overcast
9:55 PM 39.2°F 35.6°F 87% 30.17 in 10.0 miles South 8.1 mph - N/A   Overcast
10:15 PM 39.2°F 35.6°F 87% 30.17 in 5.0 miles SSW 5.8 mph - N/A   Overcast
10:35 PM 39.2°F 35.6°F 87% 30.18 in 5.0 miles SSW 5.8 mph - N/A   Overcast
10:55 PM 39.2°F 35.6°F 87% 30.18 in 7.0 miles South 5.8 mph - N/A   Overcast
11:15 PM 39.2°F 35.6°F 87% 30.19 in 5.0 miles SSW 4.6 mph - N/A   Overcast
11:35 PM 39.2°F 35.6°F 87% 30.19 in 10.0 miles SSW 5.8 mph - N/A   Overcast
11:55 PM 39.2°F 35.6°F 87% 30.19 in 7.0 miles SSW 5.8 mph - N/A   Overcast
Moon Phase
Jan. 05 Jan. 11 Jan. 18 Jan. 26 Feb. 03
Sunrise:07:56 AM (PST) Moon Rise:12:56 AM (PST)1/5
Sunset:04:39 PM (PST) Moon Set:11:43 AM (PST)1/5

Copyright © 2014 The Weather Underground, Inc.